Location: Baller�as
(41.9020°N, 0.1554°W)
Time: 12:17:29
(UTC+00:00)

Cosmos 2208 Rocket - Pass Details

Date: 10 August 2020
Orbit: 755 x 805 km, 74.0° (Epoch: 21 September)

Event Time Altitude Azimuth Distance (km) Brightness Sun altitude
Rises 22:22:51 0° 341° (NNW) 3,258 8.5 -28.1°
Reaches altitude 10° 22:25:15 10° 344° (NNW) 2,320 7.4 -28.4°
Enters shadow 22:29:50 64° 16° (NNE) 847 4.2 -28.7°
